When you browse on this site, cookies collect data to enhance your experience and personalize the content and advertising you see.
Visit our Privacy Policy to learn more. By continuing to use the site, you agree to this use of cookies and data.
  • In Sweden
  • List of Countries
  • For 7 days
  • Water Temperature
  • Weather Map
  • Weather Widgets
  • user-avatar
    Login

    Hourly Weather Nagpur

    Today, 28 May, Thursday

    Time Temperature Precipitation Wind Pressure Humidity
    00:00 +38°C° 0 mm 4 mps 726 mmHg 15%
    01:00 +37°C° 0 mm 4 mps 726 mmHg 16%
    02:00 +36°C° 0 mm 3 mps 725 mmHg 18%
    03:00 +35°C° 0 mm 3 mps 725 mmHg 20%
    04:00 +35°C° 0 mm 3 mps 726 mmHg 22%
    05:00 +34°C° 0 mm 2 mps 726 mmHg 24%
    06:00 +36°C° 0 mm 2 mps 727 mmHg 22%
    07:00 +38°C° 0 mm 3 mps 727 mmHg 21%
    08:00 +40°C° 0 mm 3 mps 728 mmHg 20%
    09:00 +43°C° 0 mm 3 mps 728 mmHg 17%
    10:00 +47°C° 0 mm 4 mps 728 mmHg 13%
    11:00 +49°C° 0 mm 5 mps 727 mmHg 10%
    12:00 +49°C° 0 mm 5 mps 726 mmHg 9%
    13:00 +50°C° 0 mm 5 mps 726 mmHg 8%
    14:00 +50°C° 0 mm 5 mps 725 mmHg 8%
    15:00 +50°C° 0 mm 5 mps 724 mmHg 8%
    16:00 +50°C° 0 mm 5 mps 724 mmHg 8%
    17:00 +49°C° 0 mm 5 mps 723 mmHg 8%
    18:00 +47°C° 0 mm 4 mps 724 mmHg 9%
    19:00 +44°C° 0 mm 4 mps 724 mmHg 11%
    20:00 +42°C° 0 mm 3 mps 725 mmHg 12%
    21:00 +40°C° 0 mm 3 mps 725 mmHg 13%
    22:00 +41°C° 0 mm 4 mps 725 mmHg 14%
    23:00 +40°C° 0 mm 4 mps 725 mmHg 14%

    Tomorrow, 29 May, Friday

    Time Temperature Precipitation Wind Pressure Humidity
    00:00 +38°C° 0 mm 4 mps 725 mmHg 15%
    01:00 +37°C° 0 mm 4 mps 725 mmHg 16%
    02:00 +37°C° 0 mm 4 mps 725 mmHg 17%
    03:00 +36°C° 0 mm 3 mps 725 mmHg 19%
    04:00 +35°C° 0 mm 3 mps 725 mmHg 21%
    05:00 +34°C° 0 mm 2 mps 726 mmHg 23%
    06:00 +36°C° 0 mm 3 mps 726 mmHg 25%
    07:00 +38°C° 0 mm 3 mps 727 mmHg 26%
    08:00 +41°C° 0 mm 4 mps 728 mmHg 27%
    09:00 +43°C° 0 mm 3 mps 728 mmHg 23%
    10:00 +45°C° 0 mm 2 mps 727 mmHg 20%
    11:00 +47°C° 0 mm 2 mps 727 mmHg 16%
    12:00 +47°C° 0 mm 2 mps 726 mmHg 15%
    13:00 +47°C° 0 mm 3 mps 726 mmHg 14%
    14:00 +48°C° 0 mm 3 mps 725 mmHg 12%
    15:00 +47°C° 0 mm 3 mps 725 mmHg 13%
    16:00 +47°C° 0 mm 3 mps 724 mmHg 13%
    17:00 +46°C° 0 mm 3 mps 724 mmHg 13%
    18:00 +45°C° 0 mm 3 mps 724 mmHg 15%
    19:00 +44°C° 0 mm 3 mps 725 mmHg 16%
    20:00 +43°C° 0 mm 3 mps 725 mmHg 17%
    21:00 +42°C° 0 mm 3 mps 725 mmHg 19%
    22:00 +40°C° 0 mm 3 mps 726 mmHg 20%
    23:00 +39°C° 0 mm 3 mps 726 mmHg 22%

    Day after tomorrow, 30 May, Saturday

    Time Temperature Precipitation Wind Pressure Humidity
    00:00 +38°C° 0 mm 3 mps 726 mmHg 22%
    01:00 +38°C° 0 mm 4 mps 726 mmHg 22%
    02:00 +37°C° 0 mm 5 mps 726 mmHg 22%
    03:00 +37°C° 0 mm 4 mps 726 mmHg 23%
    04:00 +36°C° 0 mm 3 mps 727 mmHg 24%
    05:00 +36°C° 0 mm 2 mps 727 mmHg 25%
    06:00 +37°C° 0 mm 3 mps 728 mmHg 26%
    07:00 +38°C° 0 mm 4 mps 729 mmHg 28%
    08:00 +40°C° 0 mm 5 mps 729 mmHg 29%
    09:00 +41°C° 0 mm 5 mps 729 mmHg 27%
    10:00 +42°C° 0 mm 4 mps 729 mmHg 25%
    11:00 +44°C° 0 mm 4 mps 729 mmHg 23%
    12:00 +45°C° 0 mm 3 mps 728 mmHg 21%
    13:00 +46°C° 0 mm 3 mps 728 mmHg 19%
    14:00 +47°C° 0 mm 3 mps 727 mmHg 16%
    15:00 +46°C° 0 mm 3 mps 727 mmHg 17%
    16:00 +47°C° 0 mm 4 mps 726 mmHg 17%
    17:00 +47°C° 0 mm 5 mps 726 mmHg 17%
    18:00 +44°C° 0 mm 4 mps 726 mmHg 20%
    19:00 +42°C° 0 mm 3 mps 727 mmHg 23%
    20:00 +39°C° 0 mm 2 mps 727 mmHg 27%
    21:00 +38°C° 0 mm 2 mps 727 mmHg 28%
    22:00 +36°C° 0 mm 1 mps 728 mmHg 29%
    23:00 +36°C° 0 mm 1 mps 728 mmHg 30%

    31 May, Sunday

    Time Temperature Precipitation Wind Pressure Humidity
    00:00 +36°C° 0 mm 1 mps 728 mmHg 30%
    01:00 +36°C° 0 mm 1 mps 728 mmHg 30%
    02:00 +36°C° 0 mm 1 mps 728 mmHg 30%
    03:00 +35°C° 0 mm 1 mps 728 mmHg 32%
    04:00 +34°C° 0 mm 1 mps 729 mmHg 34%
    05:00 +34°C° 0 mm 2 mps 729 mmHg 36%
    06:00 +36°C° 0 mm 3 mps 730 mmHg 32%
    07:00 +38°C° 0 mm 4 mps 730 mmHg 28%
    08:00 +41°C° 0 mm 5 mps 731 mmHg 25%
    09:00 +42°C° 0 mm 4 mps 731 mmHg 23%
    10:00 +43°C° 0 mm 4 mps 731 mmHg 22%
    11:00 +44°C° 0 mm 4 mps 730 mmHg 20%
    12:00 +45°C° 0.1 mm 4 mps 729 mmHg 20%
    13:00 +45°C° 0.1 mm 4 mps 728 mmHg 19%
    14:00 +47°C° 0.1 mm 4 mps 728 mmHg 19%
    15:00 +45°C° 0 mm 4 mps 727 mmHg 19%
    16:00 +45°C° 0 mm 4 mps 727 mmHg 20%
    17:00 +44°C° 0 mm 4 mps 727 mmHg 21%
    18:00 +43°C° 0 mm 3 mps 727 mmHg 24%
    19:00 +40°C° 0 mm 2 mps 727 mmHg 27%
    20:00 +38°C° 0 mm 2 mps 728 mmHg 30%
    21:00 +37°C° 0.1 mm 2 mps 728 mmHg 32%
    22:00 +37°C° 0.1 mm 3 mps 728 mmHg 33%
    23:00 +36°C° 0.1 mm 4 mps 729 mmHg 35%

    1 June, Monday

    Time Temperature Precipitation Wind Pressure Humidity
    00:00 +36°C° 0 mm 4 mps 728 mmHg 37%
    01:00 +35°C° 0 mm 4 mps 728 mmHg 40%
    02:00 +34°C° 0 mm 4 mps 728 mmHg 43%
    03:00 +34°C° 0.2 mm 5 mps 728 mmHg 43%
    04:00 +34°C° 0.2 mm 5 mps 729 mmHg 43%
    05:00 +34°C° 0.2 mm 6 mps 729 mmHg 44%
    06:00 +35°C° 0 mm 6 mps 730 mmHg 40%
    07:00 +36°C° 0 mm 7 mps 730 mmHg 37%
    08:00 +38°C° 0 mm 7 mps 731 mmHg 34%
    09:00 +40°C° 0 mm 6 mps 730 mmHg 30%
    10:00 +42°C° 0 mm 6 mps 730 mmHg 25%
    11:00 +45°C° 0 mm 5 mps 730 mmHg 21%
    12:00 +46°C° 0 mm 5 mps 729 mmHg 20%
    13:00 +47°C° 0 mm 4 mps 729 mmHg 18%
    14:00 +47°C° 0 mm 4 mps 728 mmHg 16%
    15:00 +47°C° 0 mm 5 mps 727 mmHg 17%
    16:00 +46°C° 0 mm 5 mps 727 mmHg 17%
    17:00 +46°C° 0 mm 6 mps 727 mmHg 17%
    18:00 +42°C° 0 mm 5 mps 727 mmHg 23%
    19:00 +40°C° 0 mm 5 mps 728 mmHg 28%
    20:00 +36°C° 0 mm 5 mps 728 mmHg 33%
    21:00 +36°C° 0 mm 4 mps 728 mmHg 32%
    22:00 +36°C° 0 mm 3 mps 729 mmHg 32%
    23:00 +36°C° 0 mm 2 mps 729 mmHg 31%

    2 June, Tuesday

    Time Temperature Precipitation Wind Pressure Humidity
    00:00 +35°C° 0 mm 2 mps 729 mmHg 33%
    01:00 +35°C° 0 mm 2 mps 728 mmHg 34%
    02:00 +34°C° 0 mm 1 mps 728 mmHg 35%
    03:00 +34°C° 0.1 mm 2 mps 728 mmHg 37%
    04:00 +34°C° 0.1 mm 3 mps 729 mmHg 38%
    05:00 +34°C° 0.1 mm 3 mps 729 mmHg 39%
    06:00 +35°C° 0 mm 3 mps 729 mmHg 36%
    07:00 +36°C° 0 mm 3 mps 730 mmHg 33%
    08:00 +38°C° 0 mm 3 mps 730 mmHg 29%
    09:00 +39°C° 0 mm 3 mps 730 mmHg 26%
    10:00 +42°C° 0 mm 3 mps 730 mmHg 23%
    11:00 +43°C° 0 mm 4 mps 730 mmHg 20%
    12:00 +44°C° 0 mm 4 mps 729 mmHg 19%
    13:00 +45°C° 0 mm 4 mps 728 mmHg 18%
    14:00 +47°C° 0 mm 4 mps 728 mmHg 17%
    15:00 +45°C° 0 mm 5 mps 727 mmHg 21%
    16:00 +43°C° 0 mm 7 mps 727 mmHg 24%
    17:00 +41°C° 0 mm 8 mps 726 mmHg 27%
    18:00 +40°C° 0 mm 8 mps 727 mmHg 30%
    19:00 +39°C° 0 mm 8 mps 727 mmHg 32%
    20:00 +38°C° 0 mm 8 mps 728 mmHg 35%
    21:00 +36°C° 0 mm 6 mps 728 mmHg 34%
    22:00 +36°C° 0 mm 5 mps 728 mmHg 34%
    23:00 +36°C° 0 mm 4 mps 728 mmHg 34%
    Show more